Location: Axtheid
(49.6213°N, 11.8205°E)
Time: 00:17:51
(UTC+00:00)

Envisat - Pass Details

Date: 25 January 2022
Orbit: 764 x 765 km, 98.2° (Epoch: 22 May)

Event Time Altitude Azimuth Distance (km) Brightness Sun altitude
Rises 04:52:40 0° 10° (N) 3,243 6.3 -19.5°
Reaches altitude 10° 04:55:02 10° 5° (N) 2,313 5.5 -19.1°
Maximum altitude 04:59:55 48° 292° (WNW) 994 3.1 -18.3°
Drops below altitude 10° 05:04:46 10° 219° (SW) 2,298 5.2 -17.6°
Sets 05:07:07 0° 213° (SSW) 3,220 6.0 -17.2°
